Location: Bovenkerk
(52.2915°N, 4.8336°E)
Time: 13:57:18
(UTC+00:00)

Iridium 4 Rocket - Visible Passes

Search period start: 06 August 2020 00:00
Search period end: 16 August 2020 00:00
Orbit: 583 x 906 km, 86.9° (Epoch: 05 August)

Date Brightness Start Highest point End Pass type
(mag) Time Alt. Az. Time Alt. Az. Time Alt. Az.
06 Aug 3.1 22:08:20 39° SSE 22:09:50 63° E 22:14:03 10° N visible
06 Aug 5.3 23:48:06 13° WSW 23:50:13 17° WNW 23:53:03 10° NNW visible
07 Aug 4.2 21:25:09 23° ESE 21:26:44 28° E 21:30:23 10° NNE visible
07 Aug 4.3 23:04:56 25° WSW 23:06:39 34° W 23:10:33 10° NNW visible
08 Aug 5.1 20:41:58 11° ESE 20:43:49 14° ENE 20:45:56 10° NE visible
08 Aug 3.1 22:21:45 40° SSW 22:23:16 77° W 22:27:29 10° N visible
09 Aug 5.8 00:03:29 10° WNW 00:04:00 10° WNW 00:04:32 10° WNW visible
09 Aug 3.4 21:38:33 32° SE 21:40:03 46° E 21:44:05 10° NNE visible
09 Aug 5.0 23:18:19 16° WSW 23:20:16 21° WNW 23:23:31 10° NNW visible
10 Aug 4.5 20:55:21 17° ESE 20:57:01 21° E 21:00:12 10° NNE visible
10 Aug 3.8 22:35:07 30° SW 22:36:45 45° W 22:40:48 10° N visible
11 Aug 2.9 21:51:54 39° S 21:53:25 79° E 21:57:36 10° N visible
11 Aug 5.6 23:31:56 10° W 23:34:00 13° WNW 23:36:01 10° NW visible
12 Aug 3.8 21:08:42 25° SE 21:10:16 34° E 21:14:04 10° NNE visible
12 Aug 4.7 22:48:27 20° WSW 22:50:19 27° WNW 22:53:55 10° NNW visible
13 Aug 4.8 20:25:27 13° ESE 20:27:19 16° ENE 20:29:54 10° NE visible
13 Aug 3.3 22:05:13 34° SSW 22:06:52 60° W 22:11:00 10° N visible
14 Aug 3.1 21:21:59 34° SSE 21:23:36 58° E 21:27:42 10° N visible
14 Aug 5.4 23:01:44 12° WSW 23:03:59 17° WNW 23:06:45 10° NNW visible
15 Aug 4.2 20:38:43 19° ESE 20:40:31 26° E 20:43:59 10° NNE visible
15 Aug 4.3 22:18:30 23° SW 22:20:23 35° W 22:24:15 10° NNW visible
